Terminal Aerodrome Forecast
Issued by NWS

Home | Current Version | Previous Version | Text Only | Print | Product List | Glossary On
Versions: 1 2 3 4 5 6 7 8 9 10 11 12 13 14 15
000
FTUS43 KGRB 040542
TAFATW
TAF
KATW 040542Z 0406/0506 35010G14KT P6SM SCT040 BKN090
      TEMPO 0406/0410 3SM BR BKN040
     FM041000 34014G24KT P6SM SCT030 BKN070
     FM041400 36016G26KT P6SM BKN030 BKN070
     FM042300 02014G20KT P6SM SCT070
     FM050300 01008KT P6SM SKC=

USA.gov is the U.S. government's official web portal to all federal, state and local government web resources and services.